Historique des stations

Station météo de Bellegarde

Altitude de la station : 121 m







Données météorologiques pour le 17/01/2021
Date
Heure
Températures Humidité Point de rosée Vitesse
du vent
Direction Rafales Windchill Pression Pluviométrie
Cumul
Date
Heure
Températures Humidité Point de rosée Vitesse
du vent
Direction Rafales Windchill Pression Pluviométrie
Cumul
17/01/2021 12:517.3 °C84 %4.8 °C10 km/hNNO23 km/h4.81025 hPa0.2 mm
17/01/2021 12:417.6 °C84 %5.0 °C10 km/hNNO29 km/h4.81025 hPa0.2 mm
17/01/2021 12:268.0 °C84 %5.5 °C13 km/hNNO29 km/h5.71025 hPa0.2 mm
17/01/2021 12:117.8 °C83 %5.1 °C26 km/hNW26 km/h5.11025 hPa0.2 mm
17/01/2021 11:567.7 °C83 %5.0 °C13 km/hNNO23 km/h5.31025 hPa0.2 mm
17/01/2021 11:417.3 °C85 %4.9 °C15 km/hNW24 km/h4.81025 hPa0.2 mm
17/01/2021 11:266.4 °C87 %4.4 °C13 km/hNNO23 km/h3.41025 hPa0.2 mm
17/01/2021 11:116.6 °C88 %4.8 °C18 km/hNW26 km/h3.41024 hPa0.2 mm
17/01/2021 10:566.8 °C87 %4.8 °C3 km/hNNO23 km/h3.91024 hPa0.2 mm
17/01/2021 10:415.9 °C91 %4.6 °C15 km/hNW23 km/h3.21023 hPa0.2 mm
17/01/2021 10:265.4 °C91 %4.1 °C13 km/hNW21 km/h2.91024 hPa0.2 mm
17/01/2021 10:115.4 °C91 %4.0 °C11 km/hNW16 km/h2.81023 hPa0.2 mm
17/01/2021 09:564.7 °C92 %3.5 °C11 km/hNW21 km/h2.11023 hPa0.2 mm
17/01/2021 09:414.6 °C92 %3.4 °C10 km/hNNO23 km/h1.91023 hPa0.2 mm
17/01/2021 09:264.4 °C93 %3.4 °C18 km/hNW18 km/h2.01023 hPa0.2 mm
17/01/2021 09:114.2 °C92 %3.0 °C6 km/hNW18 km/h1.81023 hPa0.2 mm
17/01/2021 08:564.6 °C93 %3.5 °C5 km/hNW23 km/h1.81022 hPa0.2 mm
17/01/2021 08:414.7 °C94 %3.8 °C15 km/hNW19 km/h1.81022 hPa0.2 mm
17/01/2021 08:264.7 °C95 %4.0 °C8 km/hNW21 km/h1.81022 hPa0.2 mm
17/01/2021 08:114.7 °C95 %3.9 °C15 km/hNW18 km/h2.01022 hPa0.2 mm
17/01/2021 07:564.7 °C95 %3.9 °C13 km/hNW19 km/h2.01022 hPa0.2 mm
17/01/2021 07:414.8 °C95 %4.0 °C16 km/hNW21 km/h2.11022 hPa0.2 mm
17/01/2021 07:264.7 °C96 %4.1 °C13 km/hNW18 km/h2.41022 hPa0.2 mm
17/01/2021 07:114.7 °C96 %4.1 °C10 km/hNW19 km/h3.21021 hPa0.2 mm
17/01/2021 06:564.7 °C96 %4.1 °C8 km/hNW15 km/h3.31021 hPa0.2 mm
17/01/2021 06:414.7 °C96 %4.1 °C6 km/hNW19 km/h3.31021 hPa0.2 mm
17/01/2021 06:264.7 °C96 %4.1 °C6 km/hNW16 km/h2.81021 hPa0.2 mm
17/01/2021 06:114.6 °C96 %4.0 °C10 km/hNNO13 km/h4.51021 hPa0.0 mm
17/01/2021 05:564.6 °C96 %4.0 °C-ONO16 km/h3.11021 hPa0.0 mm
17/01/2021 05:414.4 °C96 %3.9 °C11 km/hONO16 km/h2.91021 hPa0.0 mm
17/01/2021 05:264.4 °C96 %3.8 °C-NW13 km/h4.31021 hPa0.0 mm
17/01/2021 05:114.3 °C96 %3.7 °C13 km/hONO15 km/h2.81021 hPa0.0 mm
17/01/2021 04:564.2 °C96 %3.6 °C8 km/hONO13 km/h4.01021 hPa0.0 mm
17/01/2021 04:414.2 °C96 %3.6 °C10 km/hONO13 km/h2.21021 hPa0.0 mm
17/01/2021 04:264.2 °C96 %3.6 °C6 km/hONO15 km/h2.21020 hPa0.0 mm
17/01/2021 04:114.1 °C96 %3.5 °C8 km/hNW19 km/h1.31020 hPa0.0 mm
17/01/2021 03:564.1 °C96 %3.5 °C11 km/hONO18 km/h1.31020 hPa0.0 mm
17/01/2021 03:414.1 °C96 %3.5 °C8 km/hONO21 km/h1.31020 hPa0.0 mm
17/01/2021 03:263.9 °C97 %3.5 °C10 km/hNW21 km/h1.21020 hPa0.0 mm
17/01/2021 03:113.7 °C96 %3.1 °C---3.71020 hPa0.0 mm
17/01/2021 02:563.8 °C97 %3.4 °C---3.81020 hPa0.0 mm
17/01/2021 02:413.8 °C97 %3.3 °C---3.81020 hPa0.0 mm
17/01/2021 02:263.7 °C96 %3.1 °C-ONO2 km/h3.71020 hPa0.0 mm
17/01/2021 02:113.6 °C97 %3.2 °C5 km/hNW16 km/h1.51020 hPa0.0 mm
17/01/2021 01:563.6 °C97 %3.1 °C5 km/hONO16 km/h1.41020 hPa0.0 mm
17/01/2021 01:413.5 °C96 %2.9 °C10 km/hONO19 km/h1.41020 hPa0.0 mm
17/01/2021 01:113.2 °C97 %2.8 °C11 km/hONO18 km/h0.31020 hPa0.0 mm
17/01/2021 00:563.2 °C97 %2.7 °C6 km/hONO18 km/h0.21020 hPa5.4 mm
17/01/2021 00:413.1 °C96 %2.5 °C11 km/hONO19 km/h-0.31020 hPa5.4 mm
17/01/2021 00:262.9 °C97 %2.5 °C13 km/hNW19 km/h-0.41020 hPa5.4 mm
17/01/2021 00:112.6 °C97 %2.2 °C16 km/hONO19 km/h-0.81020 hPa5.2 mm


Minima :

Température : 2.6 °C
Humidité : 83 %
Point de rosée : 2.2 °C
Vent moyen : 3 km/h
Windchill : -0.8
Pression atm. : 1020 hPa
Maxima :

Température : 8.0 °C
Humidité : 97 %
Point de rosée : 5.5 °C
Vent moyen : 26 km/h
Windchill : 5.7
Pression atm. : 1025 hPa
Rafales max : 29 km/h
Cumul de pluie sur 24H : 5.4 mm

Bellegarde est une commune du département Loiret (45).
La station météorologique du réseau de l'association la plus proche de Bellegarde est celle de Saint-Firmin-des-Bois
Site du propriétaire de la station : meteo-grognon.com



Icône Facebook Association Météo Centre Icône Twitter Association Météo Centre Icône Chaîne Youtube Association Météo Centre Icône contact Association Météo Centre Icône Insta Association Météo Centre